Regional Weather Roundup
Issued by NWS

Home | Current Version | Previous Version | Graphics & Text | Print | Product List | Glossary On
Versions: 1 2 3 4 5 6 7 8 9 10 11 12 13 14 15 16 17 18 19 20 21 22 23 24 25 26 27 28 29 30 31 32 33 34 35 36 37 38 39 40 41 42 43 44 45 46 47 48 49 50
000
ASUS43 KMKX 230800
RWRWI

WISCONSIN REGIONAL WEATHER ROUNDUP
NATIONAL WEATHER SERVICE MILWAUKEE/SULLIVAN WI
300 AM CDT FRI JUN 23 2017

NOTE: "FAIR" INDICATES FEW OR NO CLOUDS BELOW 12,000 FEET WITH NO
SIGNIFICANT WEATHER AND/OR OBSTRUCTIONS TO VISIBILITY.

WIZ001-002-006>008-014>016-023>028-230900-
NORTHWEST WISCONSIN

CITY           SKY/WX    TMP DP  RH WIND       PRES   REMARKS
SUPERIOR ARPT  NOT AVBL
ASHLAND        CLEAR     56  52  86 SW9       29.65F
HAYWARD        PTCLDY    48  47  96 S3        29.69S FOG
SIREN          CLEAR     54  51  92 CALM      29.70S
CUMBERLAND     CLEAR     54  52  94 W3        29.71S
RICE LAKE      CLEAR     58  56  91 W3        29.72S
CHETEK         CLEAR     55  55 100 CALM      29.71S
LADYSMITH      CLEAR     56  56  97 SW3       29.72S
EAU CLAIRE     NOT AVBL
MENOMONIE      CLEAR     58  57  97 SW5       29.72S
NEW RICHMOND   CLEAR     56  55  94 W3        29.72F
OSCEOLA        CLEAR     55  55 100 CALM      29.74F
$$

WIZ003>005-009-010-017-018-230900-
NORTH CENTRAL WISCONSIN

CITY           SKY/WX    TMP DP  RH WIND       PRES   REMARKS
MANITOWISH WTR FOG       50  50 100 CALM      29.69F VSB 1/4
ARBOR VITAE    CLEAR     59  57  94 CALM      29.69F
WOODRUFF       CLEAR     59  57  94 CALM      29.69F
RHINELANDER    FOG       54  54 100 CALM      29.70F VSB 1/2
EAGLE RIVER    CLOUDY    53  53 100 CALM      29.69S FOG
LAND O LAKES   FOG       55  54  97 CALM      29.69F VSB 1/2
PHILLIPS       CLEAR     56  56 100 CALM      29.70S
TOMAHAWK       NOT AVBL
MEDFORD        CLOUDY    59  57  94 W3        29.71F
MERRILL        CLOUDY    60  60 100 CALM      29.70F FOG
$$

WIZ029-030-035-036-043>047-230900-
CENTRAL WISCONSIN

CITY           SKY/WX    TMP DP  RH WIND       PRES   REMARKS
WAUSAU         CLOUDY    61  60  97 CALM      29.68F
MOSINEE        CLOUDY    59  59 100 W3        29.71F
MARSHFIELD     CLOUDY    62  59  90 W7        29.70F
STEVENS POINT  CLOUDY    63  63 100 CALM      29.70F
WAUPACA        CLOUDY    67  67  99 NW7       29.67F
WAUTOMA        CLOUDY    65  64  97 NW5       29.68F
WISC RAPIDS    CLOUDY    65  63  93 W3        29.71F
CAMP DOUGLAS   MOCLDY    65  65 100 NW3       29.70S
$$

WIZ011>013-019>022-031-037>040-048>050-230900-
NORTHEAST WISCONSIN

CITY           SKY/WX    TMP DP  RH WIND       PRES   REMARKS
ANTIGO         CLOUDY    60  60 100 NW3       29.70F
SHAWANO        CLOUDY    66  64  95 W3        29.67F
OCONTO         CLOUDY    65  64  98 W6        29.66R
STURGEON BAY   LGT RAIN  66  66 100 W5          N/A
GREEN BAY      MOCLDY    66  66 100 W5        29.65F
MANITOWOC      NOT AVBL
APPLETON       DRIZZLE   64  64 100 W5        29.66F
CLINTONVILLE   CLOUDY    64  63  94 W7        29.68F
OSHKOSH        LGT RAIN  66  64  93 W5        29.66S
$$

WIZ032>034-041-042-053>061-230900-
SOUTHWEST WISCONSIN

CITY           SKY/WX    TMP DP  RH WIND       PRES   REMARKS
LA CROSSE      CLOUDY    66  65  96 NW6       29.72F
SPARTA         LGT RAIN  64  63  99 CALM      29.72F
VIROQUA        CLOUDY    64  64 100 N5        29.73S
BOSCOBEL       CLOUDY    63  59  87 CALM      29.70F
PRAIRIE DU CHI CLOUDY    65  63  93 N3        29.71R
PLATTEVILLE    CLOUDY    66  66 100 N6        29.71R
$$

WIZ056-057-062-063-064-067-068-230900-
SOUTH CENTRAL WISCONSIN

CITY           SKY/WX    TMP DP  RH WIND       PRES   REMARKS
REEDSBURG      LGT RAIN  64  64 100 N3        29.69S
BARABOO/DELLS  LGT RAIN  64  63  95 W5        29.70R
LONE ROCK      HVY RAIN  64  63  94 SW3G17    29.71R VSB 3/4
MINERAL POINT  RAIN      64  64 100 N12       29.70R
MADISON        RAIN      65  64  97 NW5       29.69R FOG
MIDDLETON      CLOUDY    66  66 100 CALM      29.70S
WATERTOWN      TSTM      64  64 100 E5        29.66R
MONROE         HVY RAIN  64  63  94 N13G26    29.64F
JANESVILLE     RAIN      72  64  78 N14G23    29.65R
$$

WIZ051-052-058>065-066-070>072-230900-
SOUTHEAST WISCONSIN

CITY           SKY/WX    TMP DP  RH WIND       PRES   REMARKS
MILWAUKEE      TSTM      65  65 100 N14       29.64F FOG
WAUKESHA       CLOUDY    63  63 100 NW5       29.65F
MILWAUKEE/TIMM HVY RAIN  64  63  94 NW6       29.67S
RACINE         CLOUDY    65  63  93 NW3       29.65F
KENOSHA        CLOUDY    75  71  87 SW10      29.62F
FOND DU LAC    RAIN      66  63  90 SW7       29.69R
SHEBOYGAN      LGT RAIN  66  66 100 S3        29.66R
WEST BEND      RAIN      63  63 100 CALM      29.68R
JUNEAU         TSTM      64  64  97 CALM      29.70R
$$

LSZ147-162-230900-
LAKE SUPERIOR

STATION/POSITION TIME  TEMP    WIND        PRES    WAVE
                       AIR SEA DIR/SP/G            HT/PER
                 (UTC) (F)     (DEG/KT/KT) (MB)    (FT/S)
W MID LAKE BUOY  0650   45 39  220/  8/ 10 1003.3F   1/ 3
DEVILS ISLAND    0700   60     210/ 12/ 13 1003.3F
SAXON HARBOR     0740   59     200/  7/ 10 1003.4F
$$

LMZ867-665-643>646-230900-
LAKE MICHIGAN

STATION/POSITION TIME  TEMP    WIND        PRES    WAVE
                       AIR SEA DIR/SP/G            HT/PER
                 (UTC) (F)     (DEG/KT/KT) (MB)    (FT/S)
CHAMBERS ISLAND  0740   65     220/  6/  9 1004.1R
S GREEN BAY BUOY 0730   67     250/  8/  8 1004.0F
N MID LAKE BUOY  0650   58 54  200/  8/  8 1003.8F   1/ 5
NORTHPORT PIER   0740   65     270/  5/  9 1003.7S
KEWAUNEE LAKESHO 0730   66     250/  4/  8 1004.6R
SHEBOYGAN LAKESH 0700   67     330/  7/  8 1003.9F
PORT WASHINGTON  0730   62      60/  6/  8 1004.7F
MILWAUKEE LAKESH 0740   63     340/  8/ 10   N/A
S MID LAKE BUOY  0650   66 61  210/ 14/ 17 1003.6R   3/ 4
KENOSHA   LAKESH 0700   76     220/  9/ 14 1003.7
$$

TC  - TEMPERATURE IN CELSIUS
VSB - VISIBILITY IN STATUTE MILES
WCI - WIND CHILL INDEX
HX  - HEAT INDEX




USA.gov is the U.S. government's official web portal to all federal, state and local government web resources and services.